Volver al catálogo

STARLINK-35676

ActivoComunicacionesVLEO
NORAD 67345·PAYLOAD·🇺🇸 United States

Lanzado Jan 9, 2026 desde Cape Canaveral Space Force Station

Loading…

Próximos Pases (próximas 24 horas)

TLE

ActualizadoSource: CelesTrak SupGP

Época: Sep 15, 2026, 03:24 UTC

1 67345C 26003M   26258.14215278 -.00053278  00000+0 -19298-2 0  2584
2 67345  42.9993 236.9510 0001211 266.8349 335.8699 15.27602824    13

Sigue STARLINK-35676 en tiempo real con AllMySat

Download on the App Store